| time (UTC) | temp C | wind direction | speed KPH | gust KPH | rain 1hr cm | rain 24hr cm | rain mn cm | humidity % | barometer mb |
| 20260902185105 | 23 | 144 | 3.2 | 6.4 | 0.00 | 0.05 | 0.00 | 46 | 1027.7 |
| 20260902184619 | 22 | 44 | 3.2 | 6.4 | 0.00 | 0.05 | 0.00 | 44 | 1027.7 |
| 20260902184117 | 22 | 152 | 0.0 | 4.8 | 0.00 | 0.05 | 0.00 | 47 | 1027.9 |
| 20260902183611 | 22 | 44 | 1.6 | 6.4 | 0.00 | 0.05 | 0.00 | 46 | 1027.8 |
| 20260902183105 | 23 | 44 | 3.2 | 8.0 | 0.00 | 0.05 | 0.00 | 44 | 1028.0 |
| 20260902182619 | 23 | 55 | 4.8 | 8.0 | 0.00 | 0.05 | 0.00 | 43 | 1028.1 |
| 20260902182113 | 23 | 46 | 3.2 | 8.0 | 0.00 | 0.05 | 0.00 | 43 | 1028.1 |
| 20260902181607 | 23 | 41 | 3.2 | 9.7 | 0.00 | 0.05 | 0.00 | 44 | 1028.2 |
| 20260902181120 | 23 | 146 | 4.8 | 9.7 | 0.00 | 0.05 | 0.00 | 45 | 1028.2 |
| 20260902180614 | 24 | 32 | 4.8 | 8.0 | 0.00 | 0.05 | 0.00 | 42 | 1028.2 |
| 20260902180112 | 24 | 84 | 1.6 | 8.0 | 0.00 | 0.05 | 0.00 | 45 | 1028.2 |
| 20260902175626 | 24 | 140 | 3.2 | 8.0 | 0.00 | 0.05 | 0.00 | 46 | 1028.2 |
| 20260902175120 | 23 | 97 | 3.2 | 8.0 | 0.00 | 0.05 | 0.00 | 45 | 1028.3 |
| 20260902174614 | 23 | 157 | 6.4 | 9.7 | 0.00 | 0.05 | 0.00 | 46 | 1028.3 |
| 20260902174107 | 23 | 145 | 0.0 | 11.3 | 0.00 | 0.05 | 0.00 | 46 | 1028.5 |
| 20260902173601 | 23 | 157 | 4.8 | 11.3 | 0.00 | 0.05 | 0.00 | 45 | 1028.5 |
| 20260902173115 | 23 | 97 | 1.6 | 11.3 | 0.00 | 0.05 | 0.00 | 47 | 1028.5 |
| 20260902172629 | 22 | 117 | 4.8 | 12.9 | 0.00 | 0.05 | 0.00 | 48 | 1028.5 |
| 20260902172107 | 22 | 163 | 6.4 | 12.9 | 0.00 | 0.05 | 0.00 | 47 | 1028.6 |
| 20260902171640 | 22 | 192 | 3.2 | 12.9 | 0.00 | 0.05 | 0.00 | 47 | 1028.6 |
| 20260902171113 | 22 | 120 | 3.2 | 12.9 | 0.00 | 0.05 | 0.00 | 50 | 1028.7 |
| 20260902170607 | 22 | 140 | 4.8 | 12.9 | 0.00 | 0.05 | 0.00 | 49 | 1028.7 |
| 20260902165615 | 22 | 71 | 3.2 | 8.0 | 0.00 | 0.05 | 0.00 | 52 | 1028.8 |
| 20260902165109 | 22 | 157 | 3.2 | 11.3 | 0.00 | 0.05 | 0.00 | 50 | 1028.8 |
| 20260902164622 | 22 | 53 | 1.6 | 12.9 | 0.00 | 0.05 | 0.00 | 52 | 1028.8 |
| 20260902164116 | 22 | 158 | 4.8 | 12.9 | 0.00 | 0.05 | 0.00 | 53 | 1028.7 |
| 20260902163614 | 22 | 132 | 3.2 | 9.7 | 0.00 | 0.05 | 0.00 | 55 | 1028.7 |
| 20260902163108 | 21 | 139 | 1.6 | 11.3 | 0.00 | 0.05 | 0.00 | 55 | 1028.6 |
| 20260902162621 | 21 | 163 | 3.2 | 11.3 | 0.00 | 0.05 | 0.00 | 58 | 1028.6 |
| 20260902162116 | 21 | 56 | 1.6 | 8.0 | 0.00 | 0.05 | 0.00 | 57 | 1028.6 |
| 20260902161630 | 21 | 142 | 1.6 | 4.8 | 0.00 | 0.05 | 0.00 | 58 | 1028.6 |
| 20260902161122 | 20 | 56 | 3.2 | 4.8 | 0.00 | 0.05 | 0.00 | 57 | 1028.6 |
| 20260902160616 | 20 | 104 | 0.0 | 4.8 | 0.00 | 0.05 | 0.00 | 57 | 1028.7 |
| 20260902160110 | 21 | 105 | 0.0 | 9.7 | 0.00 | 0.05 | 0.00 | 58 | 1028.6 |
| 20260902155603 | 21 | 148 | 4.8 | 9.7 | 0.00 | 0.05 | 0.00 | 54 | 1028.5 |
| 20260902155121 | 21 | 162 | 3.2 | 8.0 | 0.00 | 0.05 | 0.00 | 58 | 1028.6 |
| 20260902154615 | 20 | 153 | 3.2 | 8.0 | 0.00 | 0.05 | 0.00 | 58 | 1028.5 |
| 20260902154108 | 20 | 157 | 3.2 | 6.4 | 0.00 | 0.05 | 0.00 | 60 | 1028.5 |
| 20260902153603 | 19 | 163 | 3.2 | 6.4 | 0.00 | 0.05 | 0.00 | 61 | 1028.5 |
| 20260902153136 | 19 | 131 | 1.6 | 4.8 | 0.00 | 0.05 | 0.00 | 62 | 1028.6 |
| 20260902152609 | 18 | 55 | 0.0 | 3.2 | 0.00 | 0.05 | 0.00 | 64 | 1028.6 |
| 20260902152103 | 18 | 45 | 0.0 | 3.2 | 0.00 | 0.05 | 0.00 | 65 | 1028.5 |
| 20260902151617 | 18 | 45 | 0.0 | 6.4 | 0.00 | 0.05 | 0.00 | 66 | 1028.4 |
| 20260902151109 | 18 | 45 | 4.8 | 6.4 | 0.00 | 0.05 | 0.00 | 64 | 1028.5 |
| 20260902150606 | 18 | 140 | 0.0 | 0.0 | 0.00 | 0.05 | 0.00 | 68 | 1028.4 |
| 20260902145635 | 17 | 140 | 0.0 | 0.0 | 0.00 | 0.05 | 0.00 | 65 | 1028.4 |
| 20260902145107 | 17 | 143 | 0.0 | 0.0 | 0.00 | 0.05 | 0.00 | 69 | 1028.4 |
| 20260902144601 | 17 | 143 | 0.0 | 0.0 | 0.00 | 0.05 | 0.00 | 67 | 1028.3 |
| 20260902144116 | 17 | 143 | 0.0 | 0.0 | 0.00 | 0.05 | 0.00 | 72 | 1028.3 |
| 20260902143609 | 16 | 143 | 0.0 | 0.0 | 0.00 | 0.05 | 0.00 | 74 | 1028.4 |
| 20260902143104 | 15 | 52 | 0.0 | 0.0 | 0.00 | 0.05 | 0.00 | 79 | 1028.3 |
| 20260902142616 | 15 | 52 | 0.0 | 0.0 | 0.00 | 0.05 | 0.00 | 81 | 1028.3 |
| 20260902142114 | 14 | 52 | 0.0 | 0.0 | 0.00 | 0.05 | 0.00 | 81 | 1028.3 |
| 20260902141608 | 13 | 52 | 0.0 | 0.0 | 0.00 | 0.05 | 0.00 | 83 | 1028.2 |
| 20260902141102 | 12 | 232 | 0.0 | 0.0 | 0.00 | 0.05 | 0.00 | 84 | 1028.1 |
| 20260902140616 | 12 | 55 | 0.0 | 0.0 | 0.00 | 0.05 | 0.00 | 87 | 1028.0 |
| 20260902140110 | 12 | 55 | 0.0 | 0.0 | 0.00 | 0.05 | 0.00 | 88 | 1028.1 |
| 20260902135603 | 11 | 55 | 0.0 | 0.0 | 0.00 | 0.05 | 0.00 | 88 | 1027.9 |
| 20260902135117 | 11 | 55 | 0.0 | 0.0 | 0.00 | 0.05 | 0.00 | 88 | 1027.8 |
| 20260902134611 | 11 | 55 | 0.0 | 0.0 | 0.00 | 0.05 | 0.00 | 88 | 1027.9 |
| 20260902134110 | 11 | 55 | 0.0 | 0.0 | 0.00 | 0.05 | 0.00 | 88 | 1027.8 |
| 20260902133603 | 11 | 55 | 0.0 | 0.0 | 0.00 | 0.05 | 0.00 | 88 | 1027.7 |
| 20260902133117 | 10 | 55 | 0.0 | 0.0 | 0.00 | 0.05 | 0.00 | 88 | 1027.6 |
| 20260902132611 | 10 | 55 | 0.0 | 0.0 | 0.00 | 0.05 | 0.00 | 87 | 1027.6 |
| 20260902132104 | 10 | 55 | 0.0 | 0.0 | 0.00 | 0.05 | 0.00 | 87 | 1027.6 |
| 20260902131618 | 10 | 55 | 0.0 | 0.0 | 0.00 | 0.05 | 0.00 | 87 | 1027.5 |
| 20260902131112 | 10 | 55 | 0.0 | 0.0 | 0.00 | 0.05 | 0.00 | 87 | 1027.5 |
| 20260902130610 | 10 | 55 | 0.0 | 0.0 | 0.00 | 0.05 | 0.00 | 87 | 1027.5 |
| 20260902125616 | 10 | 55 | 0.0 | 0.0 | 0.00 | 0.05 | 0.00 | 87 | 1027.6 |
| 20260902125110 | 10 | 55 | 0.0 | 0.0 | 0.00 | 0.05 | 0.00 | 86 | 1027.6 |
| 20260902124603 | 10 | 55 | 0.0 | 0.0 | 0.00 | 0.05 | 0.00 | 87 | 1027.6 |
| 20260902124117 | 10 | 55 | 0.0 | 0.0 | 0.00 | 0.05 | 0.00 | 87 | 1027.4 |
| 20260902123631 | 10 | 55 | 0.0 | 0.0 | 0.00 | 0.05 | 0.00 | 86 | 1027.4 |
| 20260902123103 | 10 | 55 | 0.0 | 0.0 | 0.00 | 0.08 | 0.00 | 86 | 1027.4 |
| 20260902122617 | 10 | 55 | 0.0 | 0.0 | 0.00 | 0.08 | 0.00 | 86 | 1027.4 |
| 20260902122130 | 10 | 55 | 0.0 | 0.0 | 0.00 | 0.08 | 0.00 | 86 | 1027.2 |
| 20260902121607 | 10 | 55 | 0.0 | 0.0 | 0.00 | 0.08 | 0.00 | 85 | 1027.1 |
| 20260902121121 | 10 | 55 | 0.0 | 0.0 | 0.00 | 0.08 | 0.00 | 85 | 1027.2 |
| 20260902120634 | 10 | 55 | 0.0 | 0.0 | 0.00 | 0.08 | 0.00 | 85 | 1027.2 |
| 20260902120107 | 10 | 55 | 0.0 | 0.0 | 0.00 | 0.08 | 0.00 | 85 | 1027.2 |
| 20260902115641 | 10 | 55 | 0.0 | 0.0 | 0.00 | 0.08 | 0.00 | 85 | 1027.1 |
| 20260902115115 | 11 | 55 | 0.0 | 0.0 | 0.00 | 0.08 | 0.00 | 86 | 1027.2 |
| 20260902114609 | 10 | 55 | 0.0 | 0.0 | 0.00 | 0.08 | 0.00 | 85 | 1027.2 |
| 20260902114103 | 11 | 55 | 0.0 | 0.0 | 0.00 | 0.08 | 0.00 | 85 | 1027.1 |
| 20260902113618 | 10 | 55 | 0.0 | 0.0 | 0.00 | 0.08 | 0.00 | 85 | 1027.1 |
| 20260902113135 | 11 | 55 | 0.0 | 0.0 | 0.00 | 0.10 | 0.00 | 85 | 1027.1 |
| 20260902112608 | 11 | 55 | 0.0 | 0.0 | 0.00 | 0.10 | 0.00 | 85 | 1027.2 |
| 20260902112102 | 11 | 55 | 0.0 | 0.0 | 0.00 | 0.10 | 0.00 | 85 | 1027.2 |
| 20260902111616 | 10 | 55 | 0.0 | 0.0 | 0.00 | 0.10 | 0.00 | 85 | 1027.2 |
| 20260902111110 | 10 | 55 | 0.0 | 0.0 | 0.00 | 0.10 | 0.00 | 85 | 1027.3 |
| 20260902110604 | 10 | 55 | 0.0 | 0.0 | 0.00 | 0.10 | 0.00 | 85 | 1027.3 |
| 20260902110118 | 10 | 55 | 0.0 | 0.0 | 0.00 | 0.10 | 0.00 | 85 | 1027.4 |
| 20260902105611 | 10 | 55 | 0.0 | 0.0 | 0.00 | 0.10 | 0.00 | 84 | 1027.4 |
| 20260902105109 | 11 | 55 | 0.0 | 0.0 | 0.00 | 0.10 | 0.00 | 84 | 1027.3 |
| 20260902104603 | 11 | 55 | 0.0 | 0.0 | 0.00 | 0.10 | 0.00 | 85 | 1027.4 |
| 20260902104116 | 11 | 55 | 0.0 | 0.0 | 0.00 | 0.10 | 0.00 | 85 | 1027.3 |
| 20260902103610 | 11 | 55 | 0.0 | 0.0 | 0.00 | 0.10 | 0.00 | 84 | 1027.2 |
| 20260902103124 | 11 | 55 | 0.0 | 0.0 | 0.00 | 0.10 | 0.00 | 84 | 1027.2 |
| 20260902102619 | 11 | 55 | 0.0 | 0.0 | 0.00 | 0.10 | 0.00 | 84 | 1027.2 |
| 20260902102133 | 11 | 55 | 0.0 | 0.0 | 0.00 | 0.10 | 0.00 | 84 | 1027.2 |
| 20260902101605 | 11 | 55 | 0.0 | 0.0 | 0.00 | 0.10 | 0.00 | 84 | 1027.2 |
| 20260902101140 | 11 | 55 | 0.0 | 0.0 | 0.00 | 0.10 | 0.00 | 85 | 1027.1 |
| 20260902100633 | 11 | 55 | 0.0 | 0.0 | 0.00 | 0.10 | 0.00 | 84 | 1027.2 |
| 20260902100110 | 11 | 55 | 0.0 | 0.0 | 0.00 | 0.10 | 0.00 | 83 | 1027.3 |
| 20260902095604 | 11 | 55 | 0.0 | 0.0 | 0.00 | 0.10 | 0.00 | 83 | 1027.2 |
| 20260902095118 | 11 | 55 | 0.0 | 0.0 | 0.00 | 0.10 | 0.00 | 83 | 1027.3 |
| 20260902094631 | 11 | 55 | 0.0 | 0.0 | 0.00 | 0.10 | 0.00 | 83 | 1027.3 |
| 20260902094105 | 11 | 55 | 0.0 | 0.0 | 0.00 | 0.10 | 0.00 | 83 | 1027.3 |
| 20260902093619 | 11 | 55 | 0.0 | 0.0 | 0.00 | 0.10 | 0.00 | 82 | 1027.4 |
| 20260902093114 | 11 | 55 | 0.0 | 0.0 | 0.00 | 0.10 | 0.00 | 82 | 1027.4 |
| 20260902092607 | 11 | 55 | 0.0 | 0.0 | 0.00 | 0.10 | 0.00 | 81 | 1027.4 |
| 20260902092121 | 11 | 55 | 0.0 | 0.0 | 0.00 | 0.10 | 0.00 | 82 | 1027.4 |
| 20260902091618 | 12 | 55 | 0.0 | 0.0 | 0.00 | 0.10 | 0.00 | 82 | 1027.5 |
| 20260902091113 | 12 | 55 | 0.0 | 0.0 | 0.00 | 0.10 | 0.00 | 82 | 1027.4 |
| 20260902090605 | 12 | 55 | 0.0 | 0.0 | 0.00 | 0.10 | 0.00 | 80 | 1027.4 |
| 20260902090140 | 12 | 55 | 0.0 | 0.0 | 0.00 | 0.10 | 0.00 | 81 | 1027.4 |
| 20260902085614 | 12 | 55 | 0.0 | 0.0 | 0.00 | 0.10 | 0.00 | 81 | 1027.4 |
| 20260902085108 | 12 | 55 | 0.0 | 0.0 | 0.00 | 0.10 | 0.00 | 80 | 1027.5 |
| 20260902084602 | 12 | 55 | 0.0 | 0.0 | 0.00 | 0.10 | 0.00 | 81 | 1027.4 |
| 20260902084116 | 12 | 55 | 0.0 | 0.0 | 0.00 | 0.10 | 0.00 | 80 | 1027.4 |
| 20260902083610 | 12 | 55 | 0.0 | 0.0 | 0.00 | 0.10 | 0.00 | 79 | 1027.4 |
| 20260902083108 | 12 | 55 | 0.0 | 0.0 | 0.00 | 0.10 | 0.00 | 79 | 1027.3 |
| 20260902082620 | 13 | 55 | 0.0 | 0.0 | 0.00 | 0.10 | 0.00 | 79 | 1027.3 |
| 20260902082111 | 13 | 55 | 0.0 | 0.0 | 0.00 | 0.10 | 0.00 | 78 | 1027.3 |
| 20260902081605 | 13 | 55 | 0.0 | 0.0 | 0.00 | 0.10 | 0.00 | 78 | 1027.3 |
| 20260902081120 | 13 | 55 | 0.0 | 0.0 | 0.00 | 0.10 | 0.00 | 80 | 1027.2 |
| 20260902080614 | 13 | 55 | 0.0 | 0.0 | 0.00 | 0.10 | 0.00 | 79 | 1027.3 |
| 20260902080108 | 13 | 55 | 0.0 | 0.0 | 0.00 | 0.10 | 0.00 | 79 | 1027.3 |
| 20260902075602 | 13 | 55 | 0.0 | 0.0 | 0.00 | 0.10 | 0.00 | 79 | 1027.4 |
| 20260902075119 | 13 | 55 | 0.0 | 0.0 | 0.00 | 0.10 | 0.00 | 78 | 1027.4 |
| 20260902074633 | 13 | 55 | 0.0 | 0.0 | 0.00 | 0.10 | 0.00 | 79 | 1027.4 |
| 20260902074107 | 13 | 55 | 0.0 | 0.0 | 0.00 | 0.10 | 0.00 | 81 | 1027.5 |
| 20260902073620 | 13 | 55 | 0.0 | 0.0 | 0.00 | 0.10 | 0.00 | 81 | 1027.5 |
| 20260902073114 | 13 | 55 | 0.0 | 0.0 | 0.00 | 0.10 | 0.00 | 80 | 1027.5 |
| 20260902072609 | 13 | 55 | 0.0 | 0.0 | 0.00 | 0.10 | 0.00 | 80 | 1027.4 |
| 20260902072123 | 13 | 55 | 0.0 | 0.0 | 0.00 | 0.10 | 0.00 | 80 | 1027.3 |
| 20260902071616 | 13 | 55 | 0.0 | 0.0 | 0.00 | 0.10 | 0.00 | 81 | 1027.4 |
| 20260902071109 | 13 | 55 | 0.0 | 0.0 | 0.00 | 0.10 | 0.00 | 81 | 1027.4 |
| 20260902070608 | 13 | 55 | 0.0 | 0.0 | 0.00 | 0.10 | 0.00 | 81 | 1027.4 |
| 20260902065636 | 13 | 55 | 0.0 | 0.0 | 0.00 | 0.10 | 0.00 | 80 | 1027.3 |
| 20260902065108 | 13 | 55 | 0.0 | 0.0 | 0.00 | 0.10 | 0.00 | 80 | 1027.3 |
| 20260902064624 | 13 | 55 | 0.0 | 0.0 | 0.00 | 0.10 | 0.00 | 80 | 1027.2 |
| 20260902064117 | 13 | 55 | 0.0 | 0.0 | 0.00 | 0.10 | 0.00 | 80 | 1027.2 |
| 20260902063632 | 13 | 55 | 0.0 | 0.0 | 0.00 | 0.10 | 0.00 | 81 | 1027.3 |
| 20260902063101 | 14 | 55 | 0.0 | 0.0 | 0.00 | 0.13 | 0.10 | 80 | 1027.4 |
| 20260902062636 | 14 | 55 | 0.0 | 0.0 | 0.00 | 0.13 | 0.10 | 80 | 1027.4 |
| 20260902062109 | 14 | 55 | 0.0 | 0.0 | 0.00 | 0.13 | 0.10 | 79 | 1027.4 |
| 20260902061607 | 14 | 55 | 0.0 | 0.0 | 0.00 | 0.13 | 0.10 | 78 | 1027.4 |
| 20260902061121 | 15 | 55 | 0.0 | 0.0 | 0.00 | 0.13 | 0.10 | 79 | 1027.4 |
| 20260902060614 | 15 | 55 | 0.0 | 0.0 | 0.00 | 0.13 | 0.10 | 77 | 1027.5 |
| 20260902060107 | 15 | 55 | 0.0 | 0.0 | 0.00 | 0.13 | 0.10 | 78 | 1027.3 |
| 20260902055621 | 15 | 55 | 0.0 | 0.0 | 0.00 | 0.13 | 0.10 | 79 | 1027.3 |
| 20260902055115 | 15 | 55 | 0.0 | 0.0 | 0.00 | 0.13 | 0.10 | 79 | 1027.4 |
| 20260902054609 | 14 | 55 | 0.0 | 0.0 | 0.00 | 0.13 | 0.10 | 81 | 1027.4 |
| 20260902054106 | 14 | 55 | 0.0 | 0.0 | 0.00 | 0.13 | 0.10 | 81 | 1027.4 |
| 20260902053641 | 14 | 55 | 0.0 | 0.0 | 0.00 | 0.13 | 0.10 | 81 | 1027.5 |
| 20260902053114 | 14 | 55 | 0.0 | 0.0 | 0.00 | 0.13 | 0.10 | 81 | 1027.4 |
| 20260902052629 | 14 | 55 | 0.0 | 0.0 | 0.00 | 0.13 | 0.10 | 80 | 1027.4 |
| 20260902052101 | 14 | 55 | 0.0 | 0.0 | 0.00 | 0.13 | 0.10 | 82 | 1027.5 |
| 20260902051636 | 14 | 55 | 0.0 | 0.0 | 0.00 | 0.13 | 0.10 | 81 | 1027.5 |
| 20260902051131 | 14 | 55 | 0.0 | 0.0 | 0.00 | 0.13 | 0.10 | 81 | 1027.4 |
| 20260902050604 | 14 | 55 | 0.0 | 0.0 | 0.00 | 0.13 | 0.10 | 81 | 1027.4 |
| 20260902050117 | 14 | 55 | 0.0 | 0.0 | 0.00 | 0.13 | 0.10 | 80 | 1027.4 |
| 20260902045611 | 14 | 55 | 0.0 | 0.0 | 0.00 | 0.13 | 0.10 | 81 | 1027.4 |
| 20260902045109 | 14 | 55 | 0.0 | 0.0 | 0.00 | 0.13 | 0.10 | 81 | 1027.4 |
| 20260902044602 | 14 | 55 | 0.0 | 0.0 | 0.00 | 0.13 | 0.10 | 80 | 1027.5 |
| 20260902044116 | 15 | 55 | 0.0 | 0.0 | 0.00 | 0.13 | 0.10 | 80 | 1027.4 |
| 20260902043609 | 15 | 55 | 0.0 | 0.0 | 0.00 | 0.13 | 0.10 | 80 | 1027.4 |
| 20260902043104 | 15 | 55 | 0.0 | 0.0 | 0.00 | 0.13 | 0.10 | 78 | 1027.5 |
| 20260902042617 | 15 | 55 | 0.0 | 0.0 | 0.00 | 0.13 | 0.10 | 78 | 1027.6 |
| 20260902042110 | 15 | 55 | 0.0 | 0.0 | 0.00 | 0.13 | 0.10 | 79 | 1027.6 |
| 20260902041603 | 15 | 55 | 0.0 | 0.0 | 0.00 | 0.13 | 0.10 | 79 | 1027.6 |
| 20260902041118 | 15 | 55 | 0.0 | 0.0 | 0.00 | 0.13 | 0.10 | 78 | 1027.6 |
| 20260902040611 | 15 | 55 | 0.0 | 0.0 | 0.00 | 0.13 | 0.10 | 78 | 1027.6 |
| 20260902040109 | 15 | 55 | 0.0 | 0.0 | 0.00 | 0.13 | 0.10 | 78 | 1027.4 |
| 20260902035623 | 15 | 55 | 0.0 | 0.0 | 0.00 | 0.13 | 0.10 | 80 | 1027.4 |
| 20260902035115 | 15 | 55 | 0.0 | 0.0 | 0.00 | 0.13 | 0.10 | 79 | 1027.4 |
| 20260902034609 | 15 | 55 | 0.0 | 0.0 | 0.00 | 0.13 | 0.10 | 79 | 1027.4 |
| 20260902034102 | 15 | 55 | 0.0 | 0.0 | 0.00 | 0.13 | 0.10 | 80 | 1027.3 |
| 20260902033616 | 15 | 55 | 0.0 | 0.0 | 0.00 | 0.13 | 0.10 | 80 | 1027.2 |
| 20260902033131 | 15 | 55 | 0.0 | 0.0 | 0.00 | 0.13 | 0.10 | 79 | 1027.2 |
| 20260902032604 | 15 | 55 | 0.0 | 0.0 | 0.00 | 0.13 | 0.10 | 79 | 1027.1 |
| 20260902032138 | 15 | 55 | 0.0 | 0.0 | 0.00 | 0.13 | 0.10 | 79 | 1027.1 |
| 20260902031616 | 15 | 55 | 0.0 | 0.0 | 0.00 | 0.13 | 0.10 | 78 | 1026.9 |
| 20260902031110 | 15 | 55 | 0.0 | 0.0 | 0.00 | 0.13 | 0.10 | 77 | 1026.9 |
| 20260902030604 | 15 | 55 | 0.0 | 0.0 | 0.00 | 0.13 | 0.10 | 77 | 1026.9 |
| 20260902030117 | 16 | 55 | 0.0 | 0.0 | 0.00 | 0.13 | 0.10 | 76 | 1026.8 |
| 20260902025611 | 16 | 55 | 0.0 | 0.0 | 0.00 | 0.13 | 0.10 | 75 | 1026.8 |
| 20260902025106 | 16 | 55 | 0.0 | 0.0 | 0.00 | 0.13 | 0.10 | 74 | 1026.6 |
| 20260902024621 | 16 | 55 | 0.0 | 0.0 | 0.00 | 0.13 | 0.10 | 75 | 1026.6 |
| 20260902024115 | 16 | 55 | 0.0 | 0.0 | 0.00 | 0.13 | 0.10 | 74 | 1026.6 |
| 20260902023613 | 16 | 55 | 0.0 | 0.0 | 0.00 | 0.13 | 0.10 | 74 | 1026.5 |
| 20260902023128 | 16 | 55 | 0.0 | 0.0 | 0.00 | 0.13 | 0.10 | 74 | 1026.5 |
| 20260902022601 | 17 | 55 | 0.0 | 3.2 | 0.00 | 0.13 | 0.10 | 72 | 1026.4 |
| 20260902022115 | 17 | 55 | 1.6 | 3.2 | 0.00 | 0.13 | 0.10 | 71 | 1026.3 |
| 20260902021608 | 17 | 55 | 0.0 | 0.0 | 0.00 | 0.13 | 0.10 | 70 | 1026.2 |
| 20260902021102 | 17 | 55 | 0.0 | 0.0 | 0.00 | 0.13 | 0.10 | 71 | 1026.1 |
| 20260902020615 | 17 | 55 | 0.0 | 0.0 | 0.00 | 0.13 | 0.10 | 70 | 1026.1 |
| 20260902020108 | 18 | 55 | 0.0 | 0.0 | 0.00 | 0.13 | 0.10 | 70 | 1026.1 |
| 20260902015602 | 18 | 55 | 0.0 | 0.0 | 0.00 | 0.13 | 0.10 | 68 | 1026.0 |
| 20260902015120 | 18 | 55 | 0.0 | 0.0 | 0.00 | 0.13 | 0.10 | 68 | 1026.0 |
| 20260902014614 | 18 | 55 | 0.0 | 0.0 | 0.00 | 0.13 | 0.10 | 66 | 1025.9 |
| 20260902014108 | 18 | 55 | 0.0 | 0.0 | 0.00 | 0.13 | 0.10 | 65 | 1025.8 |
| 20260902013602 | 19 | 55 | 0.0 | 0.0 | 0.00 | 0.13 | 0.10 | 62 | 1025.8 |
| 20260902013116 | 20 | 55 | 0.0 | 0.0 | 0.00 | 0.15 | 0.10 | 62 | 1025.7 |
| 20260902012610 | 20 | 55 | 0.0 | 0.0 | 0.00 | 0.15 | 0.10 | 61 | 1025.7 |
| 20260902012104 | 20 | 55 | 0.0 | 0.0 | 0.00 | 0.15 | 0.10 | 59 | 1025.7 |
| 20260902011618 | 20 | 55 | 0.0 | 0.0 | 0.00 | 0.15 | 0.10 | 58 | 1025.7 |
| 20260902011116 | 20 | 55 | 0.0 | 0.0 | 0.00 | 0.15 | 0.10 | 57 | 1025.7 |
| 20260902010629 | 20 | 55 | 0.0 | 0.0 | 0.00 | 0.15 | 0.10 | 55 | 1025.7 |
| 20260902005616 | 21 | 55 | 0.0 | 0.0 | 0.00 | 0.15 | 0.10 | 57 | 1025.7 |
| 20260902005109 | 21 | 55 | 0.0 | 0.0 | 0.00 | 0.15 | 0.10 | 58 | 1025.7 |
| 20260902004603 | 21 | 55 | 0.0 | 0.0 | 0.00 | 0.15 | 0.10 | 58 | 1025.9 |
| 20260902004117 | 21 | 55 | 0.0 | 0.0 | 0.00 | 0.15 | 0.10 | 59 | 1025.9 |
| 20260902003610 | 21 | 55 | 0.0 | 0.0 | 0.00 | 0.15 | 0.10 | 58 | 1025.9 |
| 20260902003104 | 21 | 55 | 0.0 | 0.0 | 0.00 | 0.18 | 0.10 | 58 | 1026.0 |
| 20260902002601 | 21 | 55 | 0.0 | 3.2 | 0.00 | 0.18 | 0.10 | 57 | 1026.0 |
| 20260902002114 | 21 | 55 | 0.0 | 4.8 | 0.00 | 0.18 | 0.10 | 57 | 1026.0 |
| 20260902001608 | 21 | 55 | 1.6 | 4.8 | 0.00 | 0.18 | 0.10 | 56 | 1026.0 |
| 20260902001102 | 21 | 55 | 1.6 | 8.0 | 0.00 | 0.18 | 0.10 | 56 | 1026.1 |
| 20260902000616 | 21 | 55 | 3.2 | 8.0 | 0.00 | 0.18 | 0.10 | 55 | 1026.0 |
| 20260902000110 | 21 | 46 | 3.2 | 6.4 | 0.00 | 0.18 | 0.10 | 56 | 1025.9 |
| 20260901235602 | 22 | 142 | 0.0 | 1.6 | 0.00 | 0.18 | 0.10 | 56 | 1025.8 |
| 20260901235116 | 22 | 118 | 0.0 | 1.6 | 0.00 | 0.18 | 0.10 | 55 | 1025.8 |
| 20260901234614 | 22 | 133 | 0.0 | 4.8 | 0.00 | 0.18 | 0.10 | 56 | 1025.7 |
| 20260901234109 | 22 | 137 | 0.0 | 4.8 | 0.00 | 0.18 | 0.10 | 55 | 1025.7 |
| 20260901233602 | 22 | 142 | 3.2 | 4.8 | 0.00 | 0.18 | 0.10 | 53 | 1025.7 |
| 20260901233117 | 22 | 142 | 1.6 | 6.4 | 0.00 | 0.91 | 0.10 | 55 | 1025.7 |
| 20260901232611 | 23 | 142 | 1.6 | 6.4 | 0.00 | 0.91 | 0.10 | 55 | 1025.6 |
| 20260901232106 | 22 | 163 | 1.6 | 3.2 | 0.00 | 0.91 | 0.10 | 54 | 1025.7 |
| 20260901231620 | 22 | 137 | 0.0 | 4.8 | 0.00 | 0.91 | 0.10 | 56 | 1025.6 |
| 20260901231112 | 22 | 156 | 1.6 | 6.4 | 0.00 | 0.91 | 0.10 | 55 | 1025.7 |
| 20260901230610 | 22 | 144 | 1.6 | 6.4 | 0.00 | 0.91 | 0.10 | 56 | 1025.7 |
| 20260901230104 | 22 | 144 | 1.6 | 4.8 | 0.00 | 0.91 | 0.10 | 58 | 1025.7 |
| 20260901225619 | 22 | 30 | 0.0 | 4.8 | 0.00 | 0.91 | 0.10 | 59 | 1025.7 |
| 20260901225107 | 22 | 51 | 1.6 | 6.4 | 0.00 | 0.91 | 0.10 | 56 | 1025.8 |
| 20260901224620 | 22 | 38 | 3.2 | 6.4 | 0.00 | 0.91 | 0.10 | 56 | 1025.8 |
| 20260901224135 | 22 | 49 | 4.8 | 6.4 | 0.00 | 0.91 | 0.10 | 54 | 1025.9 |
| 20260901223609 | 22 | 190 | 0.0 | 6.4 | 0.00 | 0.91 | 0.10 | 55 | 1026.0 |
| 20260901223102 | 22 | 167 | 3.2 | 6.4 | 0.00 | 0.91 | 0.10 | 53 | 1025.9 |
| 20260901222617 | 23 | 89 | 0.0 | 3.2 | 0.00 | 0.91 | 0.10 | 52 | 1026.0 |
| 20260901222115 | 23 | 240 | 0.0 | 3.2 | 0.00 | 0.91 | 0.10 | 52 | 1026.0 |
| 20260901221629 | 23 | 240 | 1.6 | 3.2 | 0.00 | 0.91 | 0.10 | 48 | 1025.9 |
| 20260901221102 | 23 | 136 | 0.0 | 3.2 | 0.00 | 0.91 | 0.10 | 52 | 1026.0 |
| 20260901220616 | 23 | 136 | 1.6 | 4.8 | 0.00 | 0.91 | 0.10 | 47 | 1026.0 |
| 20260901220130 | 23 | 136 | 1.6 | 4.8 | 0.00 | 0.91 | 0.10 | 51 | 1026.1 |
| 20260901215603 | 23 | 154 | 1.6 | 3.2 | 0.00 | 0.91 | 0.10 | 52 | 1026.1 |
| 20260901215137 | 23 | 157 | 1.6 | 8.0 | 0.00 | 0.91 | 0.10 | 51 | 1026.2 |
| 20260901214610 | 23 | 157 | 1.6 | 9.7 | 0.00 | 0.91 | 0.10 | 48 | 1026.2 |
| 20260901214104 | 23 | 296 | 4.8 | 9.7 | 0.00 | 0.91 | 0.10 | 45 | 1026.2 |
| 20260901213602 | 23 | 49 | 3.2 | 8.0 | 0.03 | 0.91 | 0.10 | 48 | 1026.2 |
| 20260901213116 | 23 | 136 | 1.6 | 8.0 | 0.03 | 0.91 | 0.10 | 51 | 1026.3 |
| 20260901212630 | 22 | 154 | 1.6 | 9.7 | 0.03 | 0.91 | 0.10 | 56 | 1026.4 |
| 20260901212103 | 21 | 302 | 1.6 | 9.7 | 0.03 | 0.91 | 0.10 | 62 | 1026.5 |
| 20260901211617 | 20 | 295 | 0.0 | 3.2 | 0.03 | 0.91 | 0.10 | 65 | 1026.7 |
| 20260901211111 | 20 | 91 | 0.0 | 4.8 | 0.03 | 0.91 | 0.10 | 66 | 1026.7 |
| 20260901210604 | 20 | 91 | 1.6 | 6.4 | 0.05 | 0.91 | 0.10 | 70 | 1026.8 |
| 20260901210138 | 19 | 46 | 1.6 | 6.4 | 0.05 | 0.91 | 0.10 | 74 | 1026.9 |
| 20260901205611 | 18 | 208 | 1.6 | 4.8 | 0.05 | 0.91 | 0.10 | 74 | 1027.1 |
| 20260901205108 | 18 | 355 | 0.0 | 0.0 | 0.05 | 0.91 | 0.10 | 79 | 1027.2 |
| 20260901204603 | 18 | 355 | 0.0 | 0.0 | 0.05 | 0.91 | 0.10 | 77 | 1027.3 |
| 20260901204116 | 18 | 355 | 0.0 | 0.0 | 0.05 | 0.91 | 0.10 | 77 | 1027.4 |
| 20260901203609 | 18 | 355 | 0.0 | 0.0 | 0.03 | 0.89 | 0.08 | 75 | 1027.4 |
| 20260901203103 | 18 | 302 | 0.0 | 3.2 | 0.03 | 0.89 | 0.08 | 73 | 1027.7 |
| 20260901202618 | 19 | 336 | 0.0 | 11.3 | 0.03 | 0.89 | 0.08 | 68 | 1027.7 |
| 20260901202110 | 19 | 303 | 4.8 | 11.3 | 0.03 | 0.89 | 0.08 | 63 | 1027.6 |
| 20260901201608 | 20 | 29 | 0.0 | 8.0 | 0.03 | 0.89 | 0.08 | 63 | 1027.5 |
| 20260901201102 | 21 | 312 | 3.2 | 8.0 | 0.03 | 0.89 | 0.08 | 61 | 1027.5 |
| 20260901200615 | 22 | 344 | 3.2 | 8.0 | 0.00 | 0.86 | 0.05 | 60 | 1027.3 |
| 20260901200109 | 22 | 20 | 3.2 | 9.7 | 0.00 | 0.86 | 0.05 | 52 | 1027.2 |
| 20260901195603 | 22 | 302 | 3.2 | 9.7 | 0.00 | 0.86 | 0.05 | 52 | 1027.1 |
| 20260901195116 | 22 | 338 | 1.6 | 9.7 | 0.00 | 0.86 | 0.05 | 54 | 1027.2 |
| 20260901194610 | 22 | 153 | 1.6 | 12.9 | 0.00 | 0.86 | 0.05 | 56 | 1027.2 |
| 20260901194104 | 22 | 120 | 4.8 | 12.9 | 0.00 | 0.86 | 0.05 | 56 | 1027.3 |
| 20260901193603 | 22 | 154 | 4.8 | 11.3 | 0.00 | 0.86 | 0.05 | 57 | 1027.3 |
| 20260901193117 | 22 | 24 | 3.2 | 8.0 | 0.00 | 0.86 | 0.05 | 58 | 1027.4 |
| 20260901192610 | 22 | 192 | 0.0 | 12.9 | 0.00 | 0.86 | 0.05 | 56 | 1027.5 |
| 20260901192105 | 22 | 111 | 4.8 | 12.9 | 0.00 | 0.86 | 0.05 | 60 | 1027.6 |
| 20260901191639 | 22 | 54 | 3.2 | 6.4 | 0.00 | 0.86 | 0.05 | 61 | 1027.5 |
| 20260901191111 | 21 | 302 | 1.6 | 8.0 | 0.00 | 0.86 | 0.05 | 60 | 1027.7 |
| 20260901190606 | 21 | 153 | 3.2 | 11.3 | 0.00 | 0.86 | 0.05 | 63 | 1027.8 |
| 20260901190118 | 21 | 156 | 3.2 | 14.5 | 0.00 | 0.86 | 0.05 | 63 | 1027.9 |
| 20260901185614 | 21 | 132 | 6.4 | 14.5 | 0.00 | 0.86 | 0.05 | 67 | 1028.0 |